Location: Namasale
(1.5000°N, 32.6167°E)
Time: 17:52:16
(UTC+00:00)

Vanguard 1 Rocket - Pass Details

Date: 21 April 2021
Orbit: 651 x 4225 km, 34.3° (Epoch: 17 May)

Event Time Altitude Azimuth Distance (km) Brightness Sun altitude
Rises 06:14:06 0° 231° (SW) 8,158 11.8 35.9°
Reaches altitude 10° 06:20:20 10° 229° (SW) 6,781 11.5 37.4°
Maximum altitude 06:40:28 78° 144° (SE) 2,349 10.3 42.3°
Drops below altitude 10° 06:50:23 10° 59° (ENE) 3,632 11.5 44.7°
Sets 06:52:40 0° 58° (ENE) 4,311 11.6 45.2°
